Location: Bottenau
(48.5138°N, 8.0462°E)
Time: 03:52:39
(UTC+00:00)

Cosmos 2297 Rocket - Pass Details

Date: 18 April 2021
Orbit: 838 x 844 km, 71.0° (Epoch: 09 May)

Event Time Altitude Azimuth Distance (km) Brightness Sun altitude
Exits shadow 20:02:06 17° 162° (SSE) 2,009 3.7 -15.2°
Maximum altitude 20:05:45 35° 106° (ESE) 1,341 2.8 -15.7°
Drops below altitude 10° 20:10:49 10° 43° (NE) 2,469 4.6 -16.3°
Sets 20:13:27 0° 35° (NE) 3,410 5.4 -16.7°
